Year,Month,Day,Hour,Minute,Value (Times are PST for temperature in C)
2015,06,15,00,00,18.30
2015,06,15,00,01,18.20
2015,06,15,00,02,18.20
2015,06,15,00,03,18.20
2015,06,15,00,04,18.10
2015,06,15,00,05,18.10
2015,06,15,00,06,18.10
2015,06,15,00,07,18.10
2015,06,15,00,08,18.00
2015,06,15,00,09,18.00
2015,06,15,00,10,17.90
2015,06,15,00,11,17.90
2015,06,15,00,12,17.90
2015,06,15,00,13,17.90
2015,06,15,00,14,17.80
2015,06,15,00,15,17.80
2015,06,15,00,16,17.80
2015,06,15,00,17,17.80
2015,06,15,00,18,17.80
2015,06,15,00,19,17.80
2015,06,15,00,20,17.80
2015,06,15,00,21,17.80
2015,06,15,00,22,17.80
2015,06,15,00,23,17.80
2015,06,15,00,24,17.80
2015,06,15,00,25,17.80
2015,06,15,00,26,17.80
2015,06,15,00,27,17.70
2015,06,15,00,28,17.70
2015,06,15,00,29,17.70
2015,06,15,00,30,17.70
2015,06,15,00,31,17.70
2015,06,15,00,32,17.60
2015,06,15,00,33,17.60
2015,06,15,00,34,17.60
2015,06,15,00,35,17.50
2015,06,15,00,36,17.50
2015,06,15,00,37,17.40
2015,06,15,00,38,17.50
2015,06,15,00,39,17.50
2015,06,15,00,40,17.50
2015,06,15,00,41,17.50
2015,06,15,00,42,17.50
2015,06,15,00,43,17.50
2015,06,15,00,44,17.40
2015,06,15,00,45,17.50
2015,06,15,00,46,17.40
2015,06,15,00,47,17.40
2015,06,15,00,48,17.40
2015,06,15,00,49,17.40
2015,06,15,00,50,17.40
2015,06,15,00,51,17.40
2015,06,15,00,52,17.40
2015,06,15,00,53,17.30
2015,06,15,00,54,17.30
2015,06,15,00,55,17.30
2015,06,15,00,56,17.30
2015,06,15,00,57,17.30
2015,06,15,00,58,17.30
2015,06,15,00,59,17.30
2015,06,15,01,00,17.20
2015,06,15,01,01,17.20
2015,06,15,01,02,17.20
2015,06,15,01,03,17.20
2015,06,15,01,04,17.20
2015,06,15,01,05,17.20
2015,06,15,01,06,17.20
2015,06,15,01,07,17.20
2015,06,15,01,08,17.20
2015,06,15,01,09,17.20
2015,06,15,01,10,17.20
2015,06,15,01,11,17.20
2015,06,15,01,12,17.20
2015,06,15,01,13,17.20
2015,06,15,01,14,17.20
2015,06,15,01,15,17.20
2015,06,15,01,16,17.10
2015,06,15,01,17,17.10
2015,06,15,01,18,17.10
2015,06,15,01,19,17.10
2015,06,15,01,20,17.10
2015,06,15,01,21,17.10
2015,06,15,01,22,17.10
2015,06,15,01,23,17.10
2015,06,15,01,24,17.00
2015,06,15,01,25,17.00
2015,06,15,01,26,17.00
2015,06,15,01,27,17.00
2015,06,15,01,28,16.90
2015,06,15,01,29,16.90
2015,06,15,01,30,16.90
2015,06,15,01,31,16.90
2015,06,15,01,32,16.90
2015,06,15,01,33,16.90
2015,06,15,01,34,16.80
2015,06,15,01,35,16.80
2015,06,15,01,36,16.80
2015,06,15,01,37,16.80
2015,06,15,01,38,16.80
2015,06,15,01,39,16.80
2015,06,15,01,40,16.80
2015,06,15,01,41,16.70
2015,06,15,01,42,16.70
2015,06,15,01,43,16.70
2015,06,15,01,44,16.70
2015,06,15,01,45,16.70
2015,06,15,01,46,16.60
2015,06,15,01,47,16.60
2015,06,15,01,48,16.60
2015,06,15,01,49,16.60
2015,06,15,01,50,16.60
2015,06,15,01,51,16.60
2015,06,15,01,52,16.50
2015,06,15,01,53,16.50
2015,06,15,01,54,16.50
2015,06,15,01,55,16.50
2015,06,15,01,56,16.40
2015,06,15,01,57,16.40
2015,06,15,01,58,16.40
2015,06,15,01,59,16.40
2015,06,15,02,00,16.40
2015,06,15,02,01,16.30
2015,06,15,02,02,16.30
2015,06,15,02,03,16.30
2015,06,15,02,04,16.30
2015,06,15,02,05,16.30
2015,06,15,02,06,16.20
2015,06,15,02,07,16.20
2015,06,15,02,08,16.20
2015,06,15,02,09,16.20
2015,06,15,02,10,16.20
2015,06,15,02,11,16.20
2015,06,15,02,12,16.20
2015,06,15,02,13,16.20
2015,06,15,02,14,16.20
2015,06,15,02,15,16.20
2015,06,15,02,16,16.20
2015,06,15,02,17,16.20
2015,06,15,02,18,16.20
2015,06,15,02,19,16.20
2015,06,15,02,20,16.20
2015,06,15,02,21,16.10
2015,06,15,02,22,16.10
2015,06,15,02,23,16.10
2015,06,15,02,24,16.10
2015,06,15,02,25,16.10
2015,06,15,02,26,16.10
2015,06,15,02,27,16.00
2015,06,15,02,28,16.00
2015,06,15,02,29,16.00
2015,06,15,02,30,16.00
2015,06,15,02,31,15.90
2015,06,15,02,32,15.90
2015,06,15,02,33,15.90
2015,06,15,02,34,15.90
2015,06,15,02,35,15.80
2015,06,15,02,36,15.80
2015,06,15,02,37,15.70
2015,06,15,02,38,15.70
2015,06,15,02,39,15.70
2015,06,15,02,40,15.70
2015,06,15,02,41,15.70
2015,06,15,02,42,15.70
2015,06,15,02,43,15.70
2015,06,15,02,44,15.70
2015,06,15,02,45,15.70
2015,06,15,02,46,15.70
2015,06,15,02,47,15.70
2015,06,15,02,48,15.70
2015,06,15,02,49,15.60
2015,06,15,02,50,15.60
2015,06,15,02,51,15.60
2015,06,15,02,52,15.60
2015,06,15,02,53,15.60
2015,06,15,02,54,15.60
2015,06,15,02,55,15.60
2015,06,15,02,56,15.60
2015,06,15,02,57,15.60
2015,06,15,02,58,15.50
2015,06,15,02,59,15.50
2015,06,15,03,00,15.50
2015,06,15,03,01,15.40
2015,06,15,03,02,15.40
2015,06,15,03,03,15.40
2015,06,15,03,04,15.40
2015,06,15,03,05,15.40
2015,06,15,03,06,15.40
2015,06,15,03,07,15.40
2015,06,15,03,08,15.40
2015,06,15,03,09,15.40
2015,06,15,03,10,15.40
2015,06,15,03,11,15.40
2015,06,15,03,12,15.40
2015,06,15,03,13,15.40
2015,06,15,03,14,15.40
2015,06,15,03,15,15.30
2015,06,15,03,16,15.30
2015,06,15,03,17,15.30
2015,06,15,03,18,15.30
2015,06,15,03,19,15.30
2015,06,15,03,20,15.30
2015,06,15,03,21,15.30
2015,06,15,03,22,15.30
2015,06,15,03,23,15.30
2015,06,15,03,24,15.30
2015,06,15,03,25,15.30
2015,06,15,03,26,15.30
2015,06,15,03,27,15.20
2015,06,15,03,28,15.20
2015,06,15,03,29,15.20
2015,06,15,03,30,15.20
2015,06,15,03,31,15.20
2015,06,15,03,32,15.20
2015,06,15,03,33,15.20
2015,06,15,03,34,15.20
2015,06,15,03,35,15.20
2015,06,15,03,36,15.10
2015,06,15,03,37,15.10
2015,06,15,03,38,15.10
2015,06,15,03,39,15.10
2015,06,15,03,40,15.10
2015,06,15,03,41,15.10
2015,06,15,03,42,15.00
2015,06,15,03,43,15.00
2015,06,15,03,44,15.00
2015,06,15,03,45,15.00
2015,06,15,03,46,15.00
2015,06,15,03,47,15.00
2015,06,15,03,48,15.00
2015,06,15,03,49,15.00
2015,06,15,03,50,14.90
2015,06,15,03,51,14.90
2015,06,15,03,52,14.90
2015,06,15,03,53,14.90
2015,06,15,03,54,14.90
2015,06,15,03,55,14.90
2015,06,15,03,56,14.90
2015,06,15,03,57,14.90
2015,06,15,03,58,14.80
2015,06,15,03,59,14.80
2015,06,15,04,00,14.80
2015,06,15,04,01,14.80
2015,06,15,04,02,14.80
2015,06,15,04,03,14.70
2015,06,15,04,04,14.70
2015,06,15,04,05,14.70
2015,06,15,04,06,14.70
2015,06,15,04,07,14.70
2015,06,15,04,08,14.70
2015,06,15,04,09,14.70
2015,06,15,04,10,14.70
2015,06,15,04,11,14.60
2015,06,15,04,12,14.60
2015,06,15,04,13,14.60
2015,06,15,04,14,14.60
2015,06,15,04,15,14.60
2015,06,15,04,16,14.60
2015,06,15,04,17,14.60
2015,06,15,04,18,14.60
2015,06,15,04,19,14.50
2015,06,15,04,20,14.50
2015,06,15,04,21,14.50
2015,06,15,04,22,14.50
2015,06,15,04,23,14.50
2015,06,15,04,24,14.40
2015,06,15,04,25,14.40
2015,06,15,04,26,14.40
2015,06,15,04,27,14.40
2015,06,15,04,28,14.40
2015,06,15,04,29,14.40
2015,06,15,04,30,14.30
2015,06,15,04,31,14.30
2015,06,15,04,32,14.30
2015,06,15,04,33,14.30
2015,06,15,04,34,14.30
2015,06,15,04,35,14.30
2015,06,15,04,36,14.30
2015,06,15,04,37,14.30
2015,06,15,04,38,14.20
2015,06,15,04,39,14.20
2015,06,15,04,40,14.20
2015,06,15,04,41,14.20
2015,06,15,04,42,14.20
2015,06,15,04,43,14.10
2015,06,15,04,44,14.10
2015,06,15,04,45,14.10
2015,06,15,04,46,14.10
2015,06,15,04,47,14.00
2015,06,15,04,48,14.00
2015,06,15,04,49,14.00
2015,06,15,04,50,13.90
2015,06,15,04,51,13.90
2015,06,15,04,52,13.90
2015,06,15,04,53,13.90
2015,06,15,04,54,13.90
2015,06,15,04,55,13.90
2015,06,15,04,56,13.80
2015,06,15,04,57,13.80
2015,06,15,04,58,13.80
2015,06,15,04,59,13.80
2015,06,15,05,00,13.80
2015,06,15,05,01,13.80
2015,06,15,05,02,13.80
2015,06,15,05,03,13.70
2015,06,15,05,04,13.70
2015,06,15,05,05,13.70
2015,06,15,05,06,13.60
2015,06,15,05,07,13.60
2015,06,15,05,08,13.60
2015,06,15,05,09,13.50
2015,06,15,05,10,13.50
2015,06,15,05,11,13.50
2015,06,15,05,12,13.40
2015,06,15,05,13,13.40
2015,06,15,05,14,13.40
2015,06,15,05,15,13.40
2015,06,15,05,16,13.40
2015,06,15,05,17,13.30
2015,06,15,05,18,13.30
2015,06,15,05,19,13.30
2015,06,15,05,20,13.30
2015,06,15,05,21,13.30
2015,06,15,05,22,13.30
2015,06,15,05,23,13.30
2015,06,15,05,24,13.30
2015,06,15,05,25,13.30
2015,06,15,05,26,13.30
2015,06,15,05,27,13.30
2015,06,15,05,28,13.30
2015,06,15,05,29,13.30
2015,06,15,05,30,13.30
2015,06,15,05,31,13.30
2015,06,15,05,32,13.30
2015,06,15,05,33,13.30
2015,06,15,05,34,13.30
2015,06,15,05,35,13.30
2015,06,15,05,36,13.20
2015,06,15,05,37,13.20
2015,06,15,05,38,13.20
2015,06,15,05,39,13.20
2015,06,15,05,40,13.20
2015,06,15,05,41,13.20
2015,06,15,05,42,13.20
2015,06,15,05,43,13.20
2015,06,15,05,44,13.20
2015,06,15,05,45,13.20
2015,06,15,05,46,13.20
2015,06,15,05,47,13.20
2015,06,15,05,48,13.20
2015,06,15,05,49,13.20
2015,06,15,05,50,13.20
2015,06,15,05,51,13.20
2015,06,15,05,52,13.20
2015,06,15,05,53,13.20
2015,06,15,05,54,13.10
2015,06,15,05,55,13.10
2015,06,15,05,56,13.10
2015,06,15,05,57,13.10
2015,06,15,05,58,13.10
2015,06,15,05,59,13.10
2015,06,15,06,00,13.10
2015,06,15,06,01,13.10
2015,06,15,06,02,13.10
2015,06,15,06,03,13.10
2015,06,15,06,04,13.10
2015,06,15,06,05,13.10
2015,06,15,06,06,13.10
2015,06,15,06,07,13.10
2015,06,15,06,08,13.10
2015,06,15,06,09,13.00
2015,06,15,06,10,13.00
2015,06,15,06,11,13.00
2015,06,15,06,12,13.00
2015,06,15,06,13,13.00
2015,06,15,06,14,13.00
2015,06,15,06,15,13.00
2015,06,15,06,16,13.00
2015,06,15,06,17,13.00
2015,06,15,06,18,13.00
2015,06,15,06,19,13.00
2015,06,15,06,20,13.00
2015,06,15,06,21,12.90
2015,06,15,06,22,12.90
2015,06,15,06,23,12.90
2015,06,15,06,24,12.90
2015,06,15,06,25,12.90
2015,06,15,06,26,12.90
2015,06,15,06,27,12.90
2015,06,15,06,28,12.90
2015,06,15,06,29,12.90
2015,06,15,06,30,12.90
2015,06,15,06,31,12.90
2015,06,15,06,32,12.90
2015,06,15,06,33,12.90
2015,06,15,06,34,12.90
2015,06,15,06,35,12.90
2015,06,15,06,36,12.90
2015,06,15,06,37,12.90
2015,06,15,06,38,12.90
2015,06,15,06,39,13.00
2015,06,15,06,40,13.00
2015,06,15,06,41,13.00
2015,06,15,06,42,13.00
2015,06,15,06,43,13.10
2015,06,15,06,44,13.10
2015,06,15,06,45,13.10
2015,06,15,06,46,13.10
2015,06,15,06,47,13.10
2015,06,15,06,48,13.10
2015,06,15,06,49,13.10
2015,06,15,06,50,13.20
2015,06,15,06,51,13.20
2015,06,15,06,52,13.20
2015,06,15,06,53,13.20
2015,06,15,06,54,13.20
2015,06,15,06,55,13.20
2015,06,15,06,56,13.20
2015,06,15,06,57,13.20
2015,06,15,06,58,13.20
2015,06,15,06,59,13.20
2015,06,15,07,00,13.20
2015,06,15,07,01,13.20
2015,06,15,07,02,13.20
2015,06,15,07,03,13.30
2015,06,15,07,04,13.30
2015,06,15,07,05,13.30
2015,06,15,07,06,13.30
2015,06,15,07,07,13.30
2015,06,15,07,08,13.30
2015,06,15,07,09,13.30
2015,06,15,07,10,13.30
2015,06,15,07,11,13.30
2015,06,15,07,12,13.40
2015,06,15,07,13,13.40
2015,06,15,07,14,13.40
2015,06,15,07,15,13.40
2015,06,15,07,16,13.40
2015,06,15,07,17,13.40
2015,06,15,07,18,13.40
2015,06,15,07,19,13.50
2015,06,15,07,20,13.50
2015,06,15,07,21,13.50
2015,06,15,07,22,13.50
2015,06,15,07,23,13.60
2015,06,15,07,24,13.60
2015,06,15,07,25,13.60
2015,06,15,07,26,13.60
2015,06,15,07,27,13.60
2015,06,15,07,28,13.70
2015,06,15,07,29,13.70
2015,06,15,07,30,13.70
2015,06,15,07,31,13.80
2015,06,15,07,32,13.80
2015,06,15,07,33,13.80
2015,06,15,07,34,13.80
2015,06,15,07,35,13.90
2015,06,15,07,36,13.90
2015,06,15,07,37,13.90
2015,06,15,07,38,13.90
2015,06,15,07,39,13.90
2015,06,15,07,40,13.90
2015,06,15,07,41,13.90
2015,06,15,07,42,13.90
2015,06,15,07,43,14.00
2015,06,15,07,44,14.00
2015,06,15,07,45,14.10
2015,06,15,07,46,14.10
2015,06,15,07,47,14.20
2015,06,15,07,48,14.20
2015,06,15,07,49,14.20
2015,06,15,07,50,14.20
2015,06,15,07,51,14.30
2015,06,15,07,52,14.30
2015,06,15,07,53,14.40
2015,06,15,07,54,14.40
2015,06,15,07,55,14.50
2015,06,15,07,56,14.60
2015,06,15,07,57,14.60
2015,06,15,07,58,14.60
2015,06,15,07,59,14.70
2015,06,15,08,00,14.70
2015,06,15,08,01,14.70
2015,06,15,08,02,14.70
2015,06,15,08,03,14.70
2015,06,15,08,04,14.70
2015,06,15,08,05,14.70
2015,06,15,08,06,14.70
2015,06,15,08,07,14.80
2015,06,15,08,08,14.80
2015,06,15,08,09,14.80
2015,06,15,08,10,14.80
2015,06,15,08,11,14.80
2015,06,15,08,12,14.80
2015,06,15,08,13,14.80
2015,06,15,08,14,14.80
2015,06,15,08,15,14.80
2015,06,15,08,16,14.80
2015,06,15,08,17,14.90
2015,06,15,08,18,14.90
2015,06,15,08,19,14.90
2015,06,15,08,20,15.00
2015,06,15,08,21,15.00
2015,06,15,08,22,15.00
2015,06,15,08,23,15.10
2015,06,15,08,24,15.10
2015,06,15,08,25,15.10
2015,06,15,08,26,15.20
2015,06,15,08,27,15.20
2015,06,15,08,28,15.30
2015,06,15,08,29,15.30
2015,06,15,08,30,15.30
2015,06,15,08,31,15.30
2015,06,15,08,32,15.30
2015,06,15,08,33,15.30
2015,06,15,08,34,15.30
2015,06,15,08,35,15.30
2015,06,15,08,36,15.40
2015,06,15,08,37,15.40
2015,06,15,08,38,15.40
2015,06,15,08,39,15.40
2015,06,15,08,40,15.30
2015,06,15,08,41,15.30
2015,06,15,08,42,15.30
2015,06,15,08,43,15.30
2015,06,15,08,44,15.30
2015,06,15,08,45,15.30
2015,06,15,08,46,15.30
2015,06,15,08,47,15.30
2015,06,15,08,48,15.30
2015,06,15,08,49,15.30
2015,06,15,08,50,15.40
2015,06,15,08,51,15.40
2015,06,15,08,52,15.50
2015,06,15,08,53,15.50
2015,06,15,08,54,15.60
2015,06,15,08,55,15.60
2015,06,15,08,56,15.60
2015,06,15,08,57,15.60
2015,06,15,08,58,15.60
2015,06,15,08,59,15.60
2015,06,15,09,00,15.70
2015,06,15,09,01,15.70
2015,06,15,09,02,15.70
2015,06,15,09,03,15.60
2015,06,15,09,04,15.60
2015,06,15,09,05,15.60
2015,06,15,09,06,15.60
2015,06,15,09,07,15.60
2015,06,15,09,08,15.70
2015,06,15,09,09,15.70
2015,06,15,09,10,15.70
2015,06,15,09,11,15.80
2015,06,15,09,12,15.80
2015,06,15,09,13,15.80
2015,06,15,09,14,15.90
2015,06,15,09,15,16.00
2015,06,15,09,16,16.00
2015,06,15,09,17,16.10
2015,06,15,09,18,16.10
2015,06,15,09,19,16.10
2015,06,15,09,20,16.10
2015,06,15,09,21,16.10
2015,06,15,09,22,16.10
2015,06,15,09,23,16.10
2015,06,15,09,24,16.10
2015,06,15,09,25,16.20
2015,06,15,09,26,16.20
2015,06,15,09,27,16.20
2015,06,15,09,28,16.30
2015,06,15,09,29,16.30
2015,06,15,09,30,16.40
2015,06,15,09,31,16.40
2015,06,15,09,32,16.40
2015,06,15,09,33,16.40
2015,06,15,09,34,16.40
2015,06,15,09,35,16.40
2015,06,15,09,36,16.50
2015,06,15,09,37,16.50
2015,06,15,09,38,16.50
2015,06,15,09,39,16.50
2015,06,15,09,40,16.50
2015,06,15,09,41,16.50
2015,06,15,09,42,16.60
2015,06,15,09,43,16.70
2015,06,15,09,44,16.70
2015,06,15,09,45,16.80
2015,06,15,09,46,16.70
2015,06,15,09,47,16.80
2015,06,15,09,48,16.80
2015,06,15,09,49,16.80
2015,06,15,09,50,16.80
2015,06,15,09,51,16.80
2015,06,15,09,52,16.90
2015,06,15,09,53,16.90
2015,06,15,09,54,17.00
2015,06,15,09,55,17.10
2015,06,15,09,56,17.10
2015,06,15,09,57,17.10
2015,06,15,09,58,17.20
2015,06,15,09,59,17.20
2015,06,15,10,00,17.20
2015,06,15,10,01,17.30
2015,06,15,10,02,17.30
2015,06,15,10,03,17.30
2015,06,15,10,04,17.40
2015,06,15,10,05,17.40
2015,06,15,10,06,17.50
2015,06,15,10,07,17.50
2015,06,15,10,08,17.60
2015,06,15,10,09,17.70
2015,06,15,10,10,17.80
2015,06,15,10,11,17.90
2015,06,15,10,12,17.90
2015,06,15,10,13,18.00
2015,06,15,10,14,18.10
2015,06,15,10,15,18.20
2015,06,15,10,16,18.20
2015,06,15,10,17,18.20
2015,06,15,10,18,18.30
2015,06,15,10,19,18.30
2015,06,15,10,20,18.30
2015,06,15,10,21,18.30
2015,06,15,10,22,18.30
2015,06,15,10,23,18.30
2015,06,15,10,24,18.40
2015,06,15,10,25,18.40
2015,06,15,10,26,18.40
2015,06,15,10,27,18.40
2015,06,15,10,28,18.50
2015,06,15,10,29,18.50
2015,06,15,10,30,18.60
2015,06,15,10,31,18.60
2015,06,15,10,32,18.60
2015,06,15,10,33,18.70
2015,06,15,10,34,18.80
2015,06,15,10,35,18.90
2015,06,15,10,36,18.90
2015,06,15,10,37,18.90
2015,06,15,10,38,18.90
2015,06,15,10,39,18.80
2015,06,15,10,40,18.80
2015,06,15,10,41,18.80
2015,06,15,10,42,18.90
2015,06,15,10,43,18.90
2015,06,15,10,44,18.90
2015,06,15,10,45,19.00
2015,06,15,10,46,19.10
2015,06,15,10,47,19.10
2015,06,15,10,48,19.20
2015,06,15,10,49,19.20
2015,06,15,10,50,19.30
2015,06,15,10,51,19.30
2015,06,15,10,52,19.30
2015,06,15,10,53,19.40
2015,06,15,10,54,19.40
2015,06,15,10,55,19.40
2015,06,15,10,56,19.50
2015,06,15,10,57,19.50
2015,06,15,10,58,19.50
2015,06,15,10,59,19.60
2015,06,15,11,00,19.60
2015,06,15,11,01,19.60
2015,06,15,11,02,19.60
2015,06,15,11,03,19.60
2015,06,15,11,04,19.50
2015,06,15,11,05,19.50
2015,06,15,11,06,19.50
2015,06,15,11,07,19.50
2015,06,15,11,08,19.50
2015,06,15,11,09,19.60
2015,06,15,11,10,19.70
2015,06,15,11,11,19.80
2015,06,15,11,12,19.80
2015,06,15,11,13,19.80
2015,06,15,11,14,19.90
2015,06,15,11,15,19.90
2015,06,15,11,16,20.00
2015,06,15,11,17,20.10
2015,06,15,11,18,20.20
2015,06,15,11,19,20.20
2015,06,15,11,20,20.20
2015,06,15,11,21,20.20
2015,06,15,11,22,20.20
2015,06,15,11,23,20.20
2015,06,15,11,24,20.20
2015,06,15,11,25,20.20
2015,06,15,11,26,20.20
2015,06,15,11,27,20.20
2015,06,15,11,28,20.30
2015,06,15,11,29,20.30
2015,06,15,11,30,20.30
2015,06,15,11,31,20.40
2015,06,15,11,32,20.40
2015,06,15,11,33,20.50
2015,06,15,11,34,20.50
2015,06,15,11,35,20.60
2015,06,15,11,36,20.60
2015,06,15,11,37,20.70
2015,06,15,11,38,20.80
2015,06,15,11,39,20.90
2015,06,15,11,40,20.90
2015,06,15,11,41,21.00
2015,06,15,11,42,21.10
2015,06,15,11,43,21.10
2015,06,15,11,44,21.10
2015,06,15,11,45,21.20
2015,06,15,11,46,21.20
2015,06,15,11,47,21.30
2015,06,15,11,48,21.40
2015,06,15,11,49,21.50
2015,06,15,11,50,21.50
2015,06,15,11,51,21.60
2015,06,15,11,52,21.60
2015,06,15,11,53,21.60
2015,06,15,11,54,21.60
2015,06,15,11,55,21.60
2015,06,15,11,56,21.70
2015,06,15,11,57,21.70
2015,06,15,11,58,21.70
2015,06,15,11,59,21.80
2015,06,15,12,00,21.80
2015,06,15,12,01,21.80
2015,06,15,12,02,21.90
2015,06,15,12,03,21.90
2015,06,15,12,04,21.90
2015,06,15,12,05,21.90
2015,06,15,12,06,22.00
2015,06,15,12,07,22.00
2015,06,15,12,08,22.20
2015,06,15,12,09,22.40
2015,06,15,12,10,22.50
2015,06,15,12,11,22.70
2015,06,15,12,12,22.90
2015,06,15,12,13,23.00
2015,06,15,12,14,23.20
2015,06,15,12,15,23.30
2015,06,15,12,16,23.50
2015,06,15,12,17,23.60
2015,06,15,12,18,23.80
2015,06,15,12,19,23.90
2015,06,15,12,20,24.00
2015,06,15,12,21,24.00
2015,06,15,12,22,23.90
2015,06,15,12,23,23.80
2015,06,15,12,24,23.80
2015,06,15,12,25,23.80
2015,06,15,12,26,23.70
2015,06,15,12,27,23.70
2015,06,15,12,28,23.70
2015,06,15,12,29,23.80
2015,06,15,12,30,23.80
2015,06,15,12,31,23.80
2015,06,15,12,32,23.80
2015,06,15,12,33,23.90
2015,06,15,12,34,23.90
2015,06,15,12,35,23.90
2015,06,15,12,36,23.90
2015,06,15,12,37,23.90
2015,06,15,12,38,23.90
2015,06,15,12,39,24.00
2015,06,15,12,40,24.10
2015,06,15,12,41,24.10
2015,06,15,12,42,24.10
2015,06,15,12,43,24.00
2015,06,15,12,44,24.00
2015,06,15,12,45,24.00
2015,06,15,12,46,24.10
2015,06,15,12,47,24.10
2015,06,15,12,48,24.20
2015,06,15,12,49,24.30
2015,06,15,12,50,24.40
2015,06,15,12,51,24.50
2015,06,15,12,52,24.60
2015,06,15,12,53,24.60
2015,06,15,12,54,24.70
2015,06,15,12,55,24.70
2015,06,15,12,56,24.80
2015,06,15,12,57,24.80
2015,06,15,12,58,24.80
2015,06,15,12,59,24.70
2015,06,15,13,00,24.70
2015,06,15,13,01,24.80
2015,06,15,13,02,24.80
2015,06,15,13,03,24.90
2015,06,15,13,04,24.90
2015,06,15,13,05,24.90
2015,06,15,13,06,24.80
2015,06,15,13,07,24.70
2015,06,15,13,08,24.50
2015,06,15,13,09,24.30
2015,06,15,13,10,24.20
2015,06,15,13,11,24.10
2015,06,15,13,12,24.10
2015,06,15,13,13,24.20
2015,06,15,13,14,24.20
2015,06,15,13,15,24.20
2015,06,15,13,16,24.30
2015,06,15,13,17,24.30
2015,06,15,13,18,24.40
2015,06,15,13,19,24.50
2015,06,15,13,20,24.50
2015,06,15,13,21,24.40
2015,06,15,13,22,24.10
2015,06,15,13,23,23.90
2015,06,15,13,24,23.70
2015,06,15,13,25,23.70
2015,06,15,13,26,23.70
2015,06,15,13,27,23.70
2015,06,15,13,28,23.70
2015,06,15,13,29,23.70
2015,06,15,13,30,23.70
2015,06,15,13,31,23.60
2015,06,15,13,32,23.50
2015,06,15,13,33,23.40
2015,06,15,13,34,23.30
2015,06,15,13,35,23.30
2015,06,15,13,36,23.30
2015,06,15,13,37,23.40
2015,06,15,13,38,23.50
2015,06,15,13,39,23.70
2015,06,15,13,40,23.80
2015,06,15,13,41,23.80
2015,06,15,13,42,23.80
2015,06,15,13,43,23.90
2015,06,15,13,44,24.10
2015,06,15,13,45,24.20
2015,06,15,13,46,24.40
2015,06,15,13,47,24.60
2015,06,15,13,48,24.70
2015,06,15,13,49,24.70
2015,06,15,13,50,24.70
2015,06,15,13,51,24.60
2015,06,15,13,52,24.60
2015,06,15,13,53,24.60
2015,06,15,13,54,24.60
2015,06,15,13,55,24.60
2015,06,15,13,56,24.60
2015,06,15,13,57,24.60
2015,06,15,13,58,24.60
2015,06,15,13,59,24.80
2015,06,15,14,00,24.90
2015,06,15,14,01,25.10
2015,06,15,14,02,25.20
2015,06,15,14,03,25.30
2015,06,15,14,04,25.40
2015,06,15,14,05,25.50
2015,06,15,14,06,25.60
2015,06,15,14,07,25.70
2015,06,15,14,08,25.90
2015,06,15,14,09,26.10
2015,06,15,14,10,26.20
2015,06,15,14,11,26.30
2015,06,15,14,12,26.30
2015,06,15,14,13,26.20
2015,06,15,14,14,26.20
2015,06,15,14,15,26.10
2015,06,15,14,16,26.00
2015,06,15,14,17,25.90
2015,06,15,14,18,25.80
2015,06,15,14,19,25.80
2015,06,15,14,20,25.80
2015,06,15,14,21,25.90
2015,06,15,14,22,25.90
2015,06,15,14,23,25.80
2015,06,15,14,24,25.80
2015,06,15,14,25,25.80
2015,06,15,14,26,25.80
2015,06,15,14,27,25.80
2015,06,15,14,28,25.80
2015,06,15,14,29,25.80
2015,06,15,14,30,25.90
2015,06,15,14,31,25.90
2015,06,15,14,32,25.90
2015,06,15,14,33,26.00
2015,06,15,14,34,26.00
2015,06,15,14,35,26.10
2015,06,15,14,36,26.10
2015,06,15,14,37,26.00
2015,06,15,14,38,25.80
2015,06,15,14,39,25.70
2015,06,15,14,40,25.60
2015,06,15,14,41,25.50
2015,06,15,14,42,25.50
2015,06,15,14,43,25.50
2015,06,15,14,44,25.60
2015,06,15,14,45,25.70
2015,06,15,14,46,25.80
2015,06,15,14,47,25.90
2015,06,15,14,48,25.90
2015,06,15,14,49,25.80
2015,06,15,14,50,25.70
2015,06,15,14,51,25.60
2015,06,15,14,52,25.60
2015,06,15,14,53,25.70
2015,06,15,14,54,25.70
2015,06,15,14,55,25.80
2015,06,15,14,56,25.90
2015,06,15,14,57,26.10
2015,06,15,14,58,26.30
2015,06,15,14,59,26.50
2015,06,15,15,00,26.70
2015,06,15,15,01,26.80
2015,06,15,15,02,26.90
2015,06,15,15,03,27.00
2015,06,15,15,04,26.90
2015,06,15,15,05,26.80
2015,06,15,15,06,26.60
2015,06,15,15,07,26.50
2015,06,15,15,08,26.40
2015,06,15,15,09,26.20
2015,06,15,15,10,26.00
2015,06,15,15,11,25.90
2015,06,15,15,12,25.70
2015,06,15,15,13,25.70
2015,06,15,15,14,25.50
2015,06,15,15,15,25.40
2015,06,15,15,16,25.20
2015,06,15,15,17,25.00
2015,06,15,15,18,24.80
2015,06,15,15,19,24.70
2015,06,15,15,20,24.60
2015,06,15,15,21,24.60
2015,06,15,15,22,24.60
2015,06,15,15,23,24.70
2015,06,15,15,24,24.80
2015,06,15,15,25,24.90
2015,06,15,15,26,24.90
2015,06,15,15,27,25.10
2015,06,15,15,28,25.20
2015,06,15,15,29,25.30
2015,06,15,15,30,25.30
2015,06,15,15,31,25.40
2015,06,15,15,32,25.50
2015,06,15,15,33,25.60
2015,06,15,15,34,25.60
2015,06,15,15,35,25.70
2015,06,15,15,36,25.70
2015,06,15,15,37,25.80
2015,06,15,15,38,25.90
2015,06,15,15,39,26.00
2015,06,15,15,40,26.00
2015,06,15,15,41,26.10
2015,06,15,15,42,26.10
2015,06,15,15,43,26.10
2015,06,15,15,44,26.20
2015,06,15,15,45,26.30
2015,06,15,15,46,26.40
2015,06,15,15,47,26.40
2015,06,15,15,48,26.40
2015,06,15,15,49,26.40
2015,06,15,15,50,26.40
2015,06,15,15,51,26.30
2015,06,15,15,52,26.30
2015,06,15,15,53,26.20
2015,06,15,15,54,26.10
2015,06,15,15,55,26.10
2015,06,15,15,56,25.90
2015,06,15,15,57,25.80
2015,06,15,15,58,25.70
2015,06,15,15,59,25.60
2015,06,15,16,00,25.60
2015,06,15,16,01,25.60
2015,06,15,16,02,25.50
2015,06,15,16,03,25.40
2015,06,15,16,04,25.50
2015,06,15,16,05,25.50
2015,06,15,16,06,25.50
2015,06,15,16,07,25.60
2015,06,15,16,08,25.60
2015,06,15,16,09,25.70
2015,06,15,16,10,25.70
2015,06,15,16,11,25.70
2015,06,15,16,12,25.70
2015,06,15,16,13,25.80
2015,06,15,16,14,25.80
2015,06,15,16,15,25.90
2015,06,15,16,16,25.90
2015,06,15,16,17,26.00
2015,06,15,16,18,26.10
2015,06,15,16,19,26.10
2015,06,15,16,20,26.10
2015,06,15,16,21,26.10
2015,06,15,16,22,26.10
2015,06,15,16,23,26.10
2015,06,15,16,24,26.10
2015,06,15,16,25,26.20
2015,06,15,16,26,26.20
2015,06,15,16,27,26.20
2015,06,15,16,28,26.20
2015,06,15,16,29,26.30
2015,06,15,16,30,26.30
2015,06,15,16,31,26.50
2015,06,15,16,32,26.50
2015,06,15,16,33,26.60
2015,06,15,16,34,26.70
2015,06,15,16,35,26.70
2015,06,15,16,36,26.80
2015,06,15,16,37,26.80
2015,06,15,16,38,26.80
2015,06,15,16,39,26.90
2015,06,15,16,40,26.90
2015,06,15,16,41,26.90
2015,06,15,16,42,26.90
2015,06,15,16,43,26.90
2015,06,15,16,44,26.90
2015,06,15,16,45,26.90
2015,06,15,16,46,26.90
2015,06,15,16,47,26.90
2015,06,15,16,48,26.90
2015,06,15,16,49,26.90
2015,06,15,16,50,26.90
2015,06,15,16,51,26.90
2015,06,15,16,52,26.90
2015,06,15,16,53,26.80
2015,06,15,16,54,26.80
2015,06,15,16,55,26.80
2015,06,15,16,56,26.90
2015,06,15,16,57,26.90
2015,06,15,16,58,27.00
2015,06,15,16,59,27.00
2015,06,15,17,00,27.10
2015,06,15,17,01,27.10
2015,06,15,17,02,27.10
2015,06,15,17,03,27.10
2015,06,15,17,04,27.20
2015,06,15,17,05,27.30
2015,06,15,17,06,27.30
2015,06,15,17,07,27.40
2015,06,15,17,08,27.40
2015,06,15,17,09,27.40
2015,06,15,17,10,27.40
2015,06,15,17,11,27.40
2015,06,15,17,12,27.40
2015,06,15,17,13,27.40
2015,06,15,17,14,27.50
2015,06,15,17,15,27.50
2015,06,15,17,16,27.60
2015,06,15,17,17,27.60
2015,06,15,17,18,27.60
2015,06,15,17,19,27.70